Wappingers Falls, NY

1:14 AM EDT on September 28, 2016 (GMT -0400)
Dutchess County

Weather History for KPOU - March, 2013

Change the Weather History Date:

Wednesday, March 20, 2013

  Actual Average Record
Temperature  
Mean Temperature 34 °F 38 °F  
Max Temperature 41 °F 49 °F 77 °F (2012)
Min Temperature 26 °F 27 °F -1 °F (1949)
Degree Days  
Heating Degree Days 31 27  
Month to date heating degree days 572 603  
Since 1 July heating degree days 4693 5174  
Cooling Degree Days 0 0  
Month to date cooling degree days 0 0  
Year to date cooling degree days 0 0  
Moisture  
Dew Point 18 °F    
Average Humidity 56    
Maximum Humidity 78    
Minimum Humidity 34    
Precipitation  
Precipitation 0.00 in 0.12 in 1.47 in (1990)
Month to date precipitation 1.31 2.24  
Year to date precipitation 4.97 7.98  
Sea Level Pressure  
Sea Level Pressure 29.81 in    
Wind  
Wind Speed 8 mph (West)    
Max Wind Speed 22 mph    
Max Gust Speed 31 mph    
Visibility 10 miles    
Events      
T = Trace of Precipitation, MM = Missing Value Source: NWS Daily Summary

Daily Weather History Graph

Daily Weather History Graph

Search for Another Location

Airport or City:

Trip Planner

Search our weather history database for the weather conditions in past years. The results will help you decide how hot, cold, wet, or windy it might be!

Date:

Astronomy

Mar. 20, 2013 Rise Set
Actual Time 6:58 AM EDT 7:07 PM EDT
Civil Twilight 6:30 AM EDT 7:35 PM EDT
Nautical Twilight 5:58 AM EDT 8:08 PM EDT
Astronomical Twilight 5:25 AM EDT 8:41 PM EDT
Moon 12:36 PM EDT (3/20) 2:40 AM EDT (3/20)
Length of Visible Light 13h 04m
Length of Day
12h 09m
First Quarter, 59% of the Moon is Illuminated
Mar 20
First Quarter
Mar 27
Full
Apr 3
Last Quarter
Apr 10
New
Apr 18
First Quarter

Hourly Weather History & Observations

Time (EDT) Temp. Windchill Dew Point Humidity Pressure Visibility Wind Dir Wind Speed Gust Speed Precip Events Conditions
12:53 AM 33.1 °F 27.7 °F 18.0 °F 54% 29.79 in 10.0 mi WNW 5.8 mph - N/A   Clear
1:53 AM 30.9 °F 24.3 °F 17.1 °F 57% 29.81 in 10.0 mi West 6.9 mph - N/A   Clear
2:53 AM 30.0 °F 24.1 °F 18.0 °F 61% 29.81 in 10.0 mi West 5.8 mph - N/A   Clear
3:53 AM 28.9 °F 20.4 °F 18.0 °F 64% 29.82 in 10.0 mi WSW 9.2 mph - N/A   Clear
4:53 AM 28.0 °F 22.8 °F 17.1 °F 63% 29.82 in 10.0 mi WSW 4.6 mph - N/A   Scattered Clouds
5:53 AM 28.0 °F 20.0 °F 17.1 °F 63% 29.83 in 10.0 mi WSW 8.1 mph - N/A   Clear
6:53 AM 27.0 °F 19.5 °F 18.0 °F 69% 29.84 in 10.0 mi WSW 6.9 mph - N/A   Clear
7:53 AM 30.0 °F 20.5 °F 19.0 °F 64% 29.84 in 10.0 mi West 11.5 mph - N/A   Mostly Cloudy
8:53 AM 30.9 °F 20.2 °F 21.0 °F 67% 29.84 in 10.0 mi WSW 15.0 mph 20.7 mph N/A   Overcast
9:53 AM 33.1 °F 24.4 °F 19.9 °F 59% 29.83 in 10.0 mi WSW 11.5 mph 18.4 mph N/A   Clear
10:53 AM 34.0 °F 24.6 °F 17.1 °F 50% 29.84 in 10.0 mi West 13.8 mph 21.9 mph N/A   Mostly Cloudy
11:53 AM 35.1 °F 24.8 °F 16.0 °F 46% 29.83 in 10.0 mi West 17.3 mph 23.0 mph N/A   Overcast
12:53 PM 36.0 °F 27.5 °F 16.0 °F 44% 29.82 in 10.0 mi West 12.7 mph 19.6 mph N/A   Overcast
1:53 PM 37.0 °F 31.0 °F 16.0 °F 42% 29.80 in 10.0 mi WSW 8.1 mph - N/A   Overcast
2:53 PM 39.0 °F 31.0 °F 14.0 °F 36% 29.78 in 10.0 mi West 13.8 mph 17.3 mph N/A   Scattered Clouds
3:53 PM 39.9 °F 36.7 °F 15.1 °F 36% 29.77 in 10.0 mi SW 4.6 mph - N/A   Overcast
4:53 PM 39.9 °F 31.4 °F 16.0 °F 38% 29.77 in 10.0 mi WSW 16.1 mph 25.3 mph N/A   Scattered Clouds
5:53 PM 39.9 °F 35.1 °F 16.0 °F 38% 29.76 in 10.0 mi WSW 6.9 mph - N/A   Mostly Cloudy
6:53 PM 39.0 °F 34.8 °F 17.1 °F 41% 29.78 in 10.0 mi West 5.8 mph - N/A   Scattered Clouds
7:53 PM 37.0 °F 32.4 °F 19.0 °F 48% 29.78 in 10.0 mi NW 5.8 mph - N/A   Clear
8:53 PM 35.1 °F 29.3 °F 19.9 °F 54% 29.80 in 10.0 mi West 6.9 mph - N/A   Clear
9:53 PM 30.9 °F - 21.9 °F 69% 29.81 in 10.0 mi Calm Calm - N/A   Clear
10:53 PM 30.0 °F - 21.9 °F 72% 29.81 in 10.0 mi Calm Calm - N/A   Overcast
11:53 PM 28.9 °F - 23.0 °F 78% 29.82 in 10.0 mi Calm Calm - N/A   Overcast